KB0OJV Weather Reports


Display with metric or nautical units.
time (UTC)temp
F
wind
direction
speed
MPH
gust
MPH
rain 1hr
in
rain 24hr
in
rain mn
in
humidity
%
barometer
mb
20260504024005 54 251 0.0 0.0 0.00 0.00 0.00 50 1004.3
20260504023502 55 251 0.0 0.0 0.00 0.00 0.00 49 1004.3
20260504023011 55 251 0.0 0.0 0.00 0.00 0.00 48 1004.3
20260504022505 56 251 0.0 0.0 0.00 0.00 0.00 47 1004.3
20260504022007 56 251 0.0 0.0 0.00 0.00 0.00 47 1004.3
20260504021513 57 251 0.0 0.0 0.00 0.00 0.00 45 1004.3
20260504021006 58 251 0.0 0.0 0.00 0.00 0.00 46 1004.4
20260504020507 59 251 0.0 0.0 0.00 0.00 0.00 43 1004.3
20260504020020 59 0.0 0.0 0.00 0.00 0.00 42 1004.3
20260504015507 60 0.0 0.0 0.00 0.00 0.00 42 1004.3
20260504015008 61 0.0 0.0 0.00 0.00 0.00 40 1004.4
20260504014522 61 0.0 0.0 0.00 0.00 0.00 39 1004.4
20260504014009 62 262 3.0 0.0 0.00 0.00 0.00 34 1004.4
20260504013513 62 0.0 0.0 0.00 0.00 0.00 34 1004.5
20260504013034 63 2.0 3.0 0.00 0.00 0.00 39 1004.5
20260504012509 64 243 2.0 3.0 0.00 0.00 0.00 32 1004.4
20260504012003 64 258 1.0 4.0 0.00 0.00 0.00 33 1004.5
20260504011508 64 261 2.0 4.0 0.00 0.00 0.00 31 1004.5
20260504011007 65 269 2.0 4.0 0.00 0.00 0.00 31 1004.5
20260504010506 65 257 3.0 6.0 0.00 0.00 0.00 31 1004.5
20260504010016 65 259 3.0 7.0 0.00 0.00 0.00 31 1004.6
20260504005507 65 249 4.0 10.0 0.00 0.00 0.00 31 1004.6
20260504005009 65 285 6.0 10.0 0.00 0.00 0.00 30 1004.6
20260504004534 66 286 6.0 9.0 0.00 0.00 0.00 29 1004.5
20260504004010 66 269 4.0 8.0 0.00 0.00 0.00 30 1004.5
20260504003509 67 256 4.0 8.0 0.00 0.00 0.00 29 1004.6
20260504003022 67 277 4.0 10.0 0.00 0.00 0.00 30 1004.6
20260504002511 67 266 6.0 11.0 0.00 0.00 0.00 29 1004.7
20260504002006 68 265 6.0 11.0 0.00 0.00 0.00 28 1004.8
20260504001530 68 269 7.0 11.0 0.00 0.00 0.00 28 1004.8
20260504001005 69 260 7.0 12.0 0.00 0.00 0.00 27 1004.8
20260504000504 69 269 9.0 13.0 0.00 0.00 0.00 27 1004.8
20260504000016 69 254 7.0 13.0 0.00 0.00 0.00 26 1004.8
20260503235505 70 266 7.0 12.0 0.00 0.00 0.00 26 1004.7
20260503235005 70 304 8.0 12.0 0.00 0.00 0.00 26 1004.7
20260503234518 70 268 5.0 11.0 0.00 0.00 0.00 24 1004.7
20260503234009 70 288 7.0 12.0 0.00 0.00 0.00 24 1004.8
20260503233509 70 294 8.0 13.0 0.00 0.00 0.00 26 1004.9
20260503233021 71 276 8.0 13.0 0.00 0.00 0.00 25 1004.8
20260503232513 71 272 7.0 15.0 0.00 0.00 0.00 27 1004.9
20260503232011 71 265 7.0 15.0 0.00 0.00 0.00 26 1004.9
20260503231528 71 271 10.0 15.0 0.00 0.00 0.00 27 1005.0
20260503231009 71 290 6.0 16.0 0.00 0.00 0.00 27 1004.9
20260503230511 71 252 11.0 16.0 0.00 0.00 0.00 25 1005.0
20260503230014 71 242 8.0 16.0 0.00 0.00 0.00 27 1005.0
20260503225508 71 288 12.0 16.0 0.00 0.00 0.00 27 1004.9
20260503225006 71 292 8.0 13.0 0.00 0.00 0.00 27 1005.0
20260503224518 71 262 9.0 12.0 0.00 0.00 0.00 25 1005.1
20260503224008 71 273 6.0 12.0 0.00 0.00 0.00 23 1005.1
20260503223508 71 284 7.0 12.0 0.00 0.00 0.00 22 1005.0
20260503223020 71 5 3.0 12.0 0.00 0.00 0.00 24 1005.2
20260503222510 71 333 4.0 15.0 0.00 0.00 0.00 24 1005.2
20260503222010 71 286 8.0 16.0 0.00 0.00 0.00 23 1005.3
20260503221523 72 308 9.0 16.0 0.00 0.00 0.00 24 1005.3
20260503221012 72 302 7.0 12.0 0.00 0.00 0.00 24 1005.2
20260503220510 72 275 4.0 14.0 0.00 0.00 0.00 24 1005.2
20260503220027 72 320 9.0 16.0 0.00 0.00 0.00 29 1005.2
20260503215510 72 271 10.0 16.0 0.00 0.00 0.00 25 1005.2
20260503215006 72 275 7.0 16.0 0.00 0.00 0.00 26 1005.2
20260503214528 72 350 6.0 16.0 0.00 0.00 0.00 25 1005.2
20260503214006 72 352 4.0 12.0 0.00 0.00 0.00 26 1005.2
20260503213506 71 295 9.0 14.0 0.00 0.00 0.00 26 1005.3
20260503213029 71 321 4.0 14.0 0.00 0.00 0.00 26 1005.3
20260503212507 71 306 7.0 15.0 0.00 0.00 0.00 23 1005.3
20260503212013 71 344 8.0 15.0 0.00 0.00 0.00 24 1005.3
20260503211521 71 323 5.0 15.0 0.00 0.00 0.00 26 1005.3
20260503211010 72 271 8.0 15.0 0.00 0.00 0.00 24 1005.3
20260503210509 72 293 10.0 19.0 0.00 0.00 0.00 25 1005.5
20260503210025 71 273 11.0 19.0 0.00 0.00 0.00 25 1005.4
20260503205514 72 290 7.0 19.0 0.00 0.00 0.00 25 1005.3
20260503205012 71 259 11.0 19.0 0.00 0.00 0.00 27 1005.5
20260503204527 71 277 11.0 15.0 0.00 0.00 0.00 27 1005.5
20260503204009 71 284 9.0 18.0 0.00 0.00 0.00 28 1005.5
20260503203510 71 313 7.0 18.0 0.00 0.00 0.00 26 1005.6
20260503203018 71 311 7.0 15.0 0.00 0.00 0.00 26 1005.6
20260503202511 71 342 9.0 14.0 0.00 0.00 0.00 28 1005.6
20260503202011 71 300 8.0 18.0 0.00 0.00 0.00 26 1005.6
20260503201518 71 275 5.0 18.0 0.00 0.00 0.00 28 1005.7
20260503201007 71 338 7.0 20.0 0.00 0.00 0.00 29 1005.8
20260503200510 71 272 10.0 21.0 0.00 0.00 0.00 28 1005.8
20260503200026 71 308 13.0 20.0 0.00 0.00 0.00 27 1005.9
20260503195510 71 280 8.0 15.0 0.00 0.00 0.00 30 1006.0
20260503195009 71 307 8.0 14.0 0.00 0.00 0.00 31 1006.0
20260503194527 71 257 9.0 14.0 0.00 0.00 0.00 31 1006.0
20260503194005 71 276 8.0 17.0 0.00 0.00 0.00 32 1006.1
20260503193507 71 352 10.0 17.0 0.00 0.00 0.00 33 1006.0
20260503193018 71 302 6.0 15.0 0.00 0.00 0.00 32 1006.0
20260503192507 71 286 10.0 16.0 0.00 0.00 0.00 35 1006.1
20260503192012 71 288 9.0 16.0 0.00 0.00 0.00 31 1006.0
20260503191522 71 296 11.0 18.0 0.00 0.00 0.00 32 1005.9
20260503191010 71 311 12.0 18.0 0.00 0.00 0.00 32 1006.0
20260503190507 70 337 6.0 14.0 0.00 0.00 0.00 34 1006.0
20260503190037 71 298 4.0 19.0 0.00 0.00 0.00 36 1006.1
20260503185508 70 286 14.0 19.0 0.00 0.00 0.00 35 1006.1
20260503185011 70 313 12.0 16.0 0.00 0.00 0.00 34 1006.0
20260503184520 70 344 8.0 18.0 0.00 0.00 0.00 37 1006.2
20260503184009 69 335 6.0 18.0 0.00 0.00 0.00 34 1006.2
20260503183512 69 297 5.0 17.0 0.00 0.00 0.00 33 1006.2
20260503183034 70 344 9.0 15.0 0.00 0.00 0.00 37 1006.2
20260503182511 70 327 9.0 16.0 0.00 0.00 0.00 35 1006.2
20260503182009 70 317 10.0 16.0 0.00 0.00 0.00 39 1006.3
20260503181537 69 273 11.0 18.0 0.00 0.00 0.00 37 1006.3
20260503181009 69 283 10.0 18.0 0.00 0.00 0.00 40 1006.4
20260503180507 69 352 5.0 18.0 0.00 0.00 0.00 35 1006.4
20260503180039 69 22 5.0 18.0 0.00 0.00 0.00 37 1006.5
20260503175516 69 325 10.0 16.0 0.00 0.00 0.00 38 1006.4
20260503175007 69 269 4.0 15.0 0.00 0.00 0.00 38 1006.4
20260503174525 68 343 7.0 17.0 0.00 0.00 0.00 37 1006.6
20260503174011 68 323 7.0 17.0 0.00 0.00 0.00 38 1006.5
20260503173508 68 282 6.0 15.0 0.00 0.00 0.00 38 1006.5
20260503173026 68 346 7.0 24.0 0.00 0.00 0.00 37 1006.6
20260503172512 68 311 10.0 24.0 0.00 0.00 0.00 37 1006.6
20260503172010 68 321 10.0 14.0 0.00 0.00 0.00 36 1006.8
20260503171526 68 306 11.0 15.0 0.00 0.00 0.00 37 1006.7
20260503171008 67 350 6.0 16.0 0.00 0.00 0.00 38 1006.7
20260503170509 66 315 7.0 18.0 0.00 0.00 0.00 38 1006.7
20260503151002 62 316 6.0 12.0 0.00 0.00 0.00 44 1006.2
20260503131005 54 221 4.0 8.0 0.00 0.00 0.00 56 1005.8
20260503110516 49 203 2.0 5.0 0.00 0.00 0.00 59 1004.9
20260503090507 56 244 2.0 14.0 0.00 0.00 0.00 48 1005.7
20260503081515 54 192 4.0 7.0 0.00 0.00 0.00 56 1006.0
20260503081009 54 199 3.0 7.0 0.00 0.00 0.00 56 1006.1
20260503072508 54 189 2.0 8.0 0.00 0.00 0.00 57 1006.9
20260503072008 54 215 2.0 9.0 0.00 0.00 0.00 58 1006.9
20260503071512 53 194 5.0 9.0 0.00 0.00 0.00 60 1007.0
20260503071007 54 211 5.0 13.0 0.00 0.00 0.00 61 1007.0
20260503070508 54 234 5.0 13.0 0.00 0.00 0.00 61 1007.0
20260503055010 56 208 3.0 11.0 0.00 0.00 0.00 49 1008.2
20260503054531 56 192 4.0 11.0 0.00 0.00 0.00 48 1008.2
20260503054006 56 183 4.0 10.0 0.00 0.00 0.00 48 1008.3
20260503053509 56 185 4.0 9.0 0.00 0.00 0.00 47 1008.4
20260503053022 57 191 3.0 7.0 0.00 0.00 0.00 48 1008.3
20260503052507 57 201 2.0 9.0 0.00 0.00 0.00 48 1008.4
20260503051007 57 172 5.0 10.0 0.00 0.00 0.00 47 1008.5
20260503050505 57 194 4.0 10.0 0.00 0.00 0.00 48 1008.5
20260503050015 57 150 6.0 10.0 0.00 0.00 0.00 48 1008.6
20260503045511 57 180 4.0 10.0 0.00 0.00 0.00 48 1008.6
20260503045007 57 184 5.0 9.0 0.00 0.00 0.00 47 1008.6
20260503044520 57 209 3.0 8.0 0.00 0.00 0.00 47 1008.7
20260503044007 58 225 5.0 8.0 0.00 0.00 0.00 48 1008.8
20260503043510 58 132 2.0 10.0 0.00 0.00 0.00 48 1009.0
20260503043020 58 190 3.0 10.0 0.00 0.00 0.00 47 1009.0
20260503042514 58 190 4.0 8.0 0.00 0.00 0.00 47 1009.1
20260503042010 58 179 4.0 8.0 0.00 0.00 0.00 47 1009.1
20260503041526 58 192 3.0 7.0 0.00 0.00 0.00 48 1009.2
20260503040517 58 199 1.0 8.0 0.00 0.00 0.00 47 1009.4
20260503035507 59 198 2.0 6.0 0.00 0.00 0.00 46 1009.5
20260503035007 59 217 2.0 10.0 0.00 0.00 0.00 47 1009.6
20260503034519 59 193 5.0 10.0 0.00 0.00 0.00 46 1009.7
20260503034006 59 218 5.0 9.0 0.00 0.00 0.00 45 1009.8
20260503033510 59 165 3.0 9.0 0.00 0.00 0.00 45 1009.9
20260503033022 59 218 4.0 9.0 0.00 0.00 0.00 45 1010.0
20260503032511 60 225 3.0 7.0 0.00 0.00 0.00 44 1010.1
20260503032009 60 246 3.0 7.0 0.00 0.00 0.00 44 1010.1
20260503031524 60 231 2.0 10.0 0.00 0.00 0.00 43 1010.2
20260503031010 60 211 5.0 10.0 0.00 0.00 0.00 44 1010.2
20260503030504 60 217 2.0 6.0 0.00 0.00 0.00 43 1010.4
20260503030012 60 247 4.0 9.0 0.00 0.00 0.00 43 1010.4
20260503025508 60 261 4.0 11.0 0.00 0.00 0.00 42 1010.6
20260503025006 60 275 5.0 19.0 0.00 0.00 0.00 42 1010.7
20260503024514 60 245 13.0 19.0 0.00 0.00 0.00 42 1011.0